Über Orbcomm B8
Group: 3 satellites
Beschreibung wird geladen...
Live-Position
3D-Globus wird geladen...
Nächste Überflüge
Höhenverlauf
Altitude vs Time
uPlot chart will show altitude changes over time
Zweizeiliger Elementsatz
1 25416U 98046D 26063.03706852 .00001464 00000-0 52730-3 0 9998
2 25416 44.9953 30.0731 0001540 285.2372 74.8306 14.37882246441650
Epoch: 4. März 2026 •
Age: 14 hours
Aktueller Status
Höhe 765.2 km
Geschwindigkeit 7.47 km/s
Subsatellitenpunkt -0.16°S,
11.5°E
Startdatum 2. Aug. 1998
Alter 27.5 years
Typ other
Technische Details
Klassifizierung Payload
Masse 42.00 kg
Trockenmasse 42.00 kg
Gesamtmasse 42.00 kg
Länge 0.20 m
Durchmesser 1.00 m
Spannweite 4.30 m
Form Cyl + 2 Pan + Ant
Hersteller OSCG
Bus-Typ Microstar
Phasenstatus Unknown Transfer Status
Besitzer/Staat ORBC/US
Große Konstellationen
Loading constellations...